SA5VCC-15 Weather Reports


time (UTC)temp
C
wind
direction
speed
KPH
gust
KPH
rain 1hr
cm
rain 24hr
cm
rain mn
cm
humidity
%
barometer
mb
20260906093718 16 0.0 0.0 0.00 0.00 0.00 77 1005.5
20260906085455 15 0.0 0.0 0.00 0.00 0.00 83 1005.4
20260906083342 15 0.0 0.0 0.00 0.00 0.00 82 1005.3
20260906073006 12 0.0 0.0 0.00 0.00 0.00 92 1004.6
20260906070855 12 0.0 0.0 0.00 0.00 0.00 93 1004.4
20260906064742 11 0.0 0.0 0.00 0.00 0.00 96 1004.3
20260906062630 10 0.0 0.0 0.00 0.00 0.00 97 1004.2
20260906060518 10 0.0 0.0 0.00 0.00 0.00 98 1003.9
20260906054406 10 0.0 0.0 0.00 0.00 0.00 99 1003.7
20260906052254 10 0.0 0.0 0.00 0.00 0.00 10 1003.3
20260906050142 7 0.0 0.0 0.00 0.00 0.00 10 1003.2
20260906044030 7 0.0 0.0 0.00 0.00 0.00 10 1003.0
20260906012941 7 0.0 0.0 0.00 0.00 0.00 10 1001.2
20260906010829 7 0.0 0.0 0.00 0.00 0.00 10 1000.9
20260906004717 7 0.0 0.0 0.00 0.00 0.00 10 1000.8
20260906000455 8 0.0 0.0 0.00 0.00 0.00 10 1000.4
20260905234341 8 0.0 0.0 0.00 0.00 0.00 10 1000.2
20260905224005 8 0.0 0.0 0.00 0.00 0.00 10 999.6
20260905215741 9 0.0 0.0 0.00 0.00 0.00 10 999.0
20260905213628 9 0.0 0.0 0.00 0.00 0.00 10 998.8
20260905203253 11 0.0 0.0 0.00 0.00 0.00 10 997.8
20260905195028 11 0.0 0.0 0.00 0.00 0.00 10 997.3
20260905192916 11 0.0 0.0 0.00 0.00 0.00 10 997.0
20260905190804 12 0.0 0.0 0.00 0.00 0.00 93 996.8
20260905184652 13 0.0 0.0 0.00 0.00 0.00 92 996.6
20260905180428 14 0.0 0.0 0.00 0.00 0.00 90 996.0
20260905174316 14 0.0 0.0 0.00 0.00 0.00 88 995.5
20260905170052 15 0.0 0.0 0.00 0.00 0.00 83 994.8
20260905151452 17 0.0 0.0 0.00 0.00 0.00 54 993.5
20260905145340 17 0.0 0.0 0.00 0.00 0.00 53 993.2
20260905135004 17 0.0 0.0 0.00 0.00 0.00 54 992.7
20260905132852 17 0.0 0.0 0.00 0.00 0.00 50 992.6
20260905124628 17 0.0 0.0 0.00 0.00 0.00 55 992.4
20260905122515 17 0.0 0.0 0.00 0.00 0.00 52 992.3
20260905120403 16 0.0 0.0 0.00 0.00 0.00 63 992.2
20260905112139 16 0.0 0.0 0.00 0.00 0.00 68 992.1
20260905110028 15 0.0 0.0 0.00 0.00 0.00 70 991.9
20260905103915 15 0.0 0.0 0.00 0.00 0.00 75 991.7
20260905101803 15 0.0 0.0 0.00 0.00 0.00 81 991.6